QPF
0.00 0.00 0.00 0.00 0.00 0.00 0.00 0.00 0.00 0.00 0.00 0.00 0.00 0.00 0.00 0.00 0.00 0.00 0.00 0.00 0.00 0.00 0.00 0.00 0.00 0.00 0.00 0.00 0.00 0.00 0.00 0.00 0.00 0.00 0.00 0.00 0.00 0.00 0.00 0.00 0.00 0.00 0.00 0.00
0.00 0.00 0.00 0.00 0.00 0.00 0.00 0.00 0.00 0.00 0.00 0.00 0.00 0.00 0.00 0.00 0.00 0.00 0.00 0.00 0.00 0.00 0.00 0.00 0.00 0.00 0.00 0.00 0.00 0.00 0.00 0.00 0.00 0.00 0.00 0.00 0.00 0.00 0.00 0.00 0.00 0.00 0.00 0.00
0.00 0.00 0.00 0.00 0.00 0.00 0.00 0.00 0.00 0.00 0.00 0.00 0.00 0.00 0.00 0.00 0.00 0.00 0.00 0.00 0.00 0.00 0.00 0.00 0.00 0.00 0.00 0.00 0.00 0.00 0.00 0.00 0.00 0.00 0.00 0.00 0.00 0.00 0.00 0.00 0.00 0.00 0.00 0.00
0.00 0.00 0.00 0.00 0.00 0.00 0.00 0.00 0.00 0.00 0.00 0.00 0.00 0.00 0.00 0.00 0.00 0.00 0.00 0.00 0.00 0.00 0.00 0.00 0.00 0.00 0.00 0.00 0.00 0.00 0.00 0.00 0.00 0.00 0.00 0.00 0.00 0.00 0.00 0.00 0.00 0.00 0.00 0.00
0.00 0.00 0.00 0.00 0.00 0.00 0.00 0.00 0.00 0.00 0.00 0.00 0.00 0.00 0.00 0.00 0.00 0.00 0.00 0.00 0.00 0.00 0.00 0.00 0.00 0.00 0.00 0.00 0.00 0.00 0.00 0.00 0.00 0.00 0.00 0.00 0.00 0.00 0.00 0.00 0.00 0.00 0.00 0.00
0.00 0.00 0.00 0.00 0.00 0.00 0.00 0.00 0.00 0.00 0.00 0.00 0.00 0.00 0.00 0.00 0.00 0.00 0.00 0.00 0.00 0.00 0.00 0.00 0.00 0.00 0.00 0.00 0.00 0.00 0.00 0.00 0.00 0.00 0.00 0.00 0.00 0.00 0.00 0.00 0.00 0.00 0.00 0.00
0.00 0.00 0.00 0.00 0.00 0.00 0.00 0.00 0.00 0.00 0.00 0.00 0.00 0.00 0.00 0.00 0.00 0.00 0.00 0.00 0.00 0.00 0.00 0.00 0.00 0.00 0.00 0.00 0.00 0.00 0.00 0.00 0.00 0.00 0.00 0.00 0.00 0.00 0.00 0.00 0.00 0.00 0.00 0.00
0.00 0.00 0.00 0.00 0.00 0.00 0.00 0.00 0.00 0.00 0.00 0.00 0.00 0.00 0.00 0.00 0.00 0.00 0.00 0.00 0.00 0.00 0.00 0.00 0.00 0.00 0.00 0.00 0.00 0.00 0.00 0.00 0.00 0.00 0.00 0.00 0.00 0.00 0.00 0.00 0.00 0.00 0.00 0.00
0.00 0.00 0.00 0.00 0.00 0.00 0.00 0.00 0.00 0.00 0.00 0.00 0.00 0.00 0.00 0.00 0.00 0.00 0.00 0.00 0.00 0.00 0.00 0.00 0.00 0.00 0.00 0.00 0.00 0.00 0.00 0.00 0.00 0.00 0.00 0.00 0.00 0.00 0.00 0.00 0.00 0.00 0.00 0.00
0.00 0.00 0.00 0.00 0.00 0.00 0.00 0.00 0.00 0.00 0.00 0.00 0.00 0.00 0.00 0.00 0.00 0.00 0.00 0.00 0.00 0.00 0.00 0.00 0.00 0.00 0.00 0.00 0.00 0.00 0.00 0.00 0.00 0.00 0.00 0.00 0.00 0.00 0.00 0.00 0.00 0.00 0.00 0.00
0.00 0.00 0.00 0.00 0.00 0.00 0.00 0.00 0.00 0.00 0.00 0.00 0.00 0.00 0.00 0.00 0.00 0.00 0.00 0.00 0.00 0.00 0.00 0.00 0.00 0.00 0.00 0.00 0.00 0.00 0.00 0.00 0.00 0.00 0.00 0.00 0.00 0.00 0.00 0.00 0.00 0.00 0.00 0.00
0.00 0.00 0.00 0.00 0.00 0.00 0.00 0.00 0.00 0.00 0.00 0.00 0.00 0.00 0.00 0.00 0.00 0.00 0.00 0.00 0.00 0.00 0.00 0.00 0.00 0.00 0.00 0.00 0.00 0.00 0.00 0.00 0.00 0.00 0.00 0.00 0.00 0.00 0.00 0.00 0.00 0.00 0.00 0.00
0.00 0.00 0.00 0.00 0.00 0.00 0.00 0.00 0.00 0.00 0.00 0.00 0.00 0.00 0.00 0.00 0.00 0.00 0.00 0.00 0.00 0.00 0.00 0.00 0.00 0.00 0.00 0.00 0.00 0.00 0.00 0.00 0.00 0.00 0.00 0.00 0.00 0.00 0.00 0.00 0.00 0.00 0.00 0.00
0.00 0.00 0.00 0.00 0.00 0.00 0.00 0.00 0.00 0.00 0.00 0.00 0.00 0.00 0.00 0.00 0.00 0.00 0.00 0.00 0.00 0.00 0.00 0.00 0.00 0.00 0.00 0.00 0.00 0.00 0.00 0.00 0.00 0.00 0.00 0.00 0.00 0.00 0.00 0.00 0.00 0.00 0.00 0.00
0.00 0.00 0.00 0.00 0.00 0.00 0.00 0.00 0.00 0.00 0.00 0.00 0.00 0.00 0.00 0.00 0.00 0.00 0.00 0.00 0.00 0.00 0.00 0.00 0.00 0.00 0.00 0.00 0.00 0.00 0.00 0.00 0.00 0.00 0.00 0.00 0.00 0.00 0.00 0.00 0.00 0.00 0.00 0.00
0.00 0.00 0.00 0.00 0.00 0.00 0.00 0.00 0.00 0.00 0.00 0.00 0.00 0.00 0.00 0.00 0.00 0.00 0.00 0.00 0.00 0.00 0.00 0.00 0.00 0.00 0.00 0.00 0.00 0.00 0.00 0.00 0.00 0.00 0.00 0.00 0.00 0.00 0.00 0.00 0.00 0.00 0.00 0.00
0.00 0.00 0.00 0.00 0.00 0.00 0.00 0.00 0.00 0.00 0.00 0.00 0.00 0.00 0.00 0.00 0.00 0.00 0.00 0.00 0.00 0.00 0.00 0.00 0.00 0.00 0.00 0.00 0.00 0.00 0.00 0.00 0.00 0.00 0.00 0.00 0.00 0.00 0.00 0.00 0.00 0.00 0.00 0.00
0.00 0.00 0.00 0.00 0.00 0.00 0.00 0.00 0.00 0.00 0.00 0.00 0.00 0.00 0.00 0.00 0.00 0.00 0.00 0.00 0.00 0.00 0.00 0.00 0.00 0.00 0.00 0.00 0.00 0.00 0.00 0.00 0.00 0.00 0.00 0.00 0.00 0.00 0.00 0.00 0.00 0.00 0.00 0.00
0.01 0.00 0.00 0.00 0.00 0.00 0.00 0.00 0.00 0.00 0.00 0.00 0.00 0.00 0.00 0.00 0.00 0.00 0.00 0.00 0.00 0.00 0.00 0.00 0.00 0.00 0.00 0.00 0.00 0.00 0.00 0.00 0.00 0.00 0.00 0.00 0.00 0.00 0.00 0.00 0.00 0.00 0.00 0.00
0.03 0.00 0.00 0.00 0.00 0.00 0.00 0.00 0.00 0.00 0.00 0.00 0.00 0.00 0.00 0.00 0.00 0.00 0.00 0.00 0.00 0.00 0.00 0.00 0.00 0.00 0.00 0.00 0.00 0.00 0.00 0.00 0.00 0.00 0.00 0.00 0.00 0.00 0.00 0.00 0.00 0.00 0.00 0.00
0.08 0.07 0.01 0.00 0.00 0.00 0.00 0.00 0.00 0.00 0.00 0.00 0.00 0.00 0.00 0.00 0.00 0.00 0.00 0.00 0.00 0.00 0.00 0.00 0.00 0.00 0.00 0.00 0.00 0.00 0.00 0.00 0.00 0.00 0.00 0.00 0.00 0.00 0.00 0.00 0.00 0.00 0.00 0.00
0.02 0.07 0.03 0.01 0.00 0.00 0.00 0.00 0.00 0.00 0.00 0.00 0.00 0.00 0.00 0.00 0.00 0.00 0.00 0.00 0.00 0.00 0.00 0.00 0.00 0.00 0.00 0.00 0.00 0.00 0.00 0.00 0.00 0.00 0.00 0.00 0.00 0.00 0.00 0.00 0.00 0.00 0.00 0.00
0.00 0.00 0.00 0.00 0.00 0.00 0.00 0.00 0.00 0.00 0.00 0.00 0.00 0.00 0.00 0.00 0.00 0.00 0.00 0.00 0.00 0.00 0.00 0.00 0.00 0.00 0.00 0.00 0.00 0.00 0.00 0.00 0.00 0.00 0.00 0.00 0.00 0.00 0.00 0.00 0.00 0.00 0.00 0.00
0.00 0.00 0.00 0.00 0.00 0.00 0.00 0.00 0.00 0.00 0.00 0.00 0.00 0.00 0.00 0.00 0.00 0.00 0.00 0.00 0.00 0.00 0.00 0.00 0.00 0.00 0.00 0.00 0.00 0.00 0.00 0.00 0.00 0.00 0.00 0.00 0.00 0.00 0.00 0.00 0.00 0.00 0.00 0.00
0.00 0.00 0.00 0.00 0.00 0.00 0.00 0.00 0.00 0.00 0.00 0.00 0.00 0.00 0.00 0.00 0.00 0.00 0.00 0.00 0.00 0.00 0.00 0.00 0.00 0.00 0.00 0.00 0.00 0.00 0.00 0.00 0.00 0.00 0.00 0.00 0.00 0.00 0.00 0.00 0.00 0.00 0.00 0.00
0.01 0.01 0.00 0.00 0.00 0.00 0.00 0.00 0.00 0.00 0.00 0.00 0.00 0.00 0.00 0.00 0.00 0.00 0.00 0.00 0.00 0.00 0.00 0.00 0.00 0.00 0.00 0.00 0.00 0.00 0.00 0.00 0.00 0.00 0.00 0.00 0.00 0.00 0.00 0.00 0.00 0.00 0.00 0.00
MSLP
1013.43 1014.04 1014.06 1014.30 1014.63 1014.46 1014.63 1015.04 1015.71 1016.50 1016.46 1016.52 1016.63 1016.75 1016.29 1016.34 1016.45 1016.53 1016.68 1016.51 1016.56 1016.78 1017.48 1017.63 1017.95 1018.46 1019.07 1019.54 1019.89 1020.24 1020.70 1021.15 1021.29 1021.53 1021.98 1022.47 1023.31 1023.95 1024.27 1024.33 1024.35 1024.35 1024.20 1024.10
1014.12 1014.18 1014.06 1013.98 1014.29 1014.73 1014.93 1015.24 1016.28 1017.14 1017.05 1017.02 1017.21 1017.08 1016.58 1016.18 1015.88 1015.99 1016.29 1016.49 1016.69 1017.45 1018.09 1018.36 1018.51 1018.71 1019.19 1019.82 1020.25 1020.54 1020.86 1021.29 1021.44 1021.43 1021.67 1022.22 1023.15 1024.00 1024.35 1024.60 1024.75 1024.77 1024.66 1024.54
1014.05 1013.92 1013.86 1014.26 1014.51 1015.04 1015.41 1015.71 1016.49 1017.08 1017.52 1017.74 1017.82 1017.54 1016.51 1015.41 1015.36 1015.48 1015.75 1015.96 1016.57 1017.40 1018.18 1018.69 1018.94 1019.23 1019.59 1020.09 1020.58 1020.93 1021.24 1021.55 1021.62 1021.57 1021.81 1022.57 1023.26 1023.99 1024.60 1024.90 1025.20 1025.26 1025.06 1025.01
1014.56 1014.09 1014.01 1014.42 1014.79 1014.95 1015.82 1015.95 1016.70 1017.61 1018.22 1018.74 1018.48 1017.87 1016.52 1015.48 1015.28 1015.32 1015.67 1016.04 1016.56 1017.20 1018.15 1018.62 1018.97 1019.49 1019.94 1020.56 1020.93 1021.26 1021.57 1021.80 1021.83 1021.67 1022.01 1022.37 1023.00 1023.96 1024.56 1025.01 1025.43 1025.47 1025.37 1025.37
1015.11 1014.88 1014.72 1014.92 1014.96 1015.17 1016.12 1016.39 1017.52 1018.39 1019.27 1019.74 1019.57 1019.17 1016.62 1015.93 1015.78 1015.68 1015.98 1016.52 1017.01 1017.74 1018.07 1018.77 1019.45 1020.01 1020.52 1020.97 1021.41 1021.57 1021.89 1022.14 1022.09 1022.03 1022.21 1022.56 1023.33 1024.00 1024.61 1025.11 1025.49 1025.82 1025.80 1025.73
1016.12 1015.65 1015.54 1015.61 1015.50 1015.71 1016.63 1017.59 1018.97 1019.93 1020.96 1021.36 1019.90 1019.30 1017.34 1016.35 1015.54 1015.91 1016.57 1017.09 1017.52 1018.31 1018.73 1019.24 1019.80 1020.46 1021.10 1021.44 1021.71 1021.93 1022.22 1022.41 1022.45 1022.39 1022.48 1022.82 1023.47 1024.16 1024.74 1025.27 1025.76 1026.09 1026.21 1026.22
1016.94 1016.94 1016.36 1015.99 1016.33 1016.78 1017.13 1018.48 1021.02 1022.20 1022.50 1021.28 1020.36 1019.88 1016.88 1016.16 1015.79 1016.00 1016.88 1017.60 1018.00 1018.60 1019.36 1019.99 1020.48 1021.03 1021.47 1021.71 1022.00 1022.27 1022.52 1022.87 1022.84 1022.75 1022.91 1023.22 1023.66 1024.15 1024.71 1025.22 1025.72 1026.19 1026.44 1026.55
1017.44 1018.07 1016.88 1016.44 1016.66 1016.86 1017.68 1018.27 1019.74 1021.29 1022.37 1021.61 1020.83 1019.34 1016.82 1016.16 1016.31 1016.74 1017.28 1017.80 1018.44 1019.02 1019.64 1020.38 1020.81 1021.17 1021.52 1021.78 1022.13 1022.50 1022.87 1023.17 1023.26 1023.30 1023.46 1023.60 1023.94 1024.44 1024.92 1025.25 1025.70 1026.12 1026.39 1026.51
1016.78 1017.64 1017.30 1016.92 1016.91 1016.99 1017.81 1018.47 1019.25 1020.86 1022.41 1021.92 1020.26 1018.65 1017.15 1017.03 1017.08 1017.26 1017.78 1018.22 1018.63 1019.29 1019.86 1020.28 1020.89 1021.28 1021.64 1021.94 1022.32 1022.66 1023.07 1023.43 1023.60 1023.75 1023.89 1024.14 1024.39 1024.75 1025.18 1025.56 1025.88 1026.32 1026.56 1026.64
1015.63 1017.47 1017.74 1017.45 1017.22 1017.32 1017.30 1018.08 1019.54 1020.77 1022.09 1022.01 1020.16 1018.77 1017.15 1017.19 1017.20 1017.44 1017.91 1018.30 1018.69 1019.22 1019.69 1020.21 1020.58 1021.13 1021.58 1021.90 1022.30 1022.71 1023.08 1023.56 1023.87 1024.08 1024.23 1024.46 1024.80 1025.13 1025.53 1025.91 1026.30 1026.60 1026.78 1026.92
1014.87 1016.34 1018.13 1017.75 1017.29 1017.21 1017.70 1017.98 1018.88 1019.81 1020.55 1020.37 1019.93 1018.15 1016.19 1016.11 1016.45 1016.85 1017.31 1017.89 1018.47 1019.08 1019.43 1019.95 1020.35 1020.90 1021.36 1021.81 1022.25 1022.72 1023.25 1023.70 1024.12 1024.28 1024.51 1024.77 1025.13 1025.46 1025.79 1026.17 1026.61 1026.84 1027.01 1027.15
1014.39 1015.84 1017.38 1017.51 1017.36 1017.22 1017.44 1017.73 1018.14 1019.33 1020.09 1019.98 1019.30 1017.50 1015.87 1015.61 1015.93 1016.36 1016.93 1017.43 1018.11 1018.47 1019.10 1019.65 1020.11 1020.65 1021.29 1021.73 1022.21 1022.67 1023.21 1023.66 1023.97 1024.22 1024.52 1024.87 1025.22 1025.62 1026.03 1026.35 1026.55 1026.66 1026.92 1026.98
1014.01 1015.41 1017.05 1018.04 1018.13 1017.72 1017.67 1017.74 1017.90 1018.54 1019.06 1019.11 1018.84 1017.19 1015.90 1015.70 1016.10 1016.36 1016.68 1017.12 1017.62 1018.24 1018.81 1019.30 1020.04 1020.54 1020.89 1021.48 1021.96 1022.44 1022.89 1023.31 1023.56 1023.94 1024.38 1024.90 1025.33 1025.63 1025.93 1026.20 1026.46 1026.67 1026.99 1027.26
1013.88 1015.04 1015.70 1016.48 1016.66 1016.80 1017.62 1017.38 1017.56 1018.04 1018.68 1018.13 1017.49 1016.60 1015.84 1015.70 1015.80 1015.99 1016.38 1016.76 1017.24 1017.83 1018.28 1018.87 1019.52 1020.04 1020.44 1020.95 1021.48 1021.99 1022.46 1022.78 1023.17 1023.68 1024.27 1024.81 1025.14 1025.48 1025.80 1026.23 1026.64 1026.92 1027.12 1027.47
1014.36 1015.25 1015.83 1016.26 1016.07 1016.33 1016.20 1016.32 1016.72 1016.89 1017.00 1016.91 1016.49 1015.84 1014.96 1014.90 1014.71 1014.97 1015.47 1016.14 1016.65 1017.09 1017.53 1018.04 1018.70 1019.28 1019.72 1020.36 1020.97 1021.52 1021.96 1022.35 1022.90 1023.62 1024.16 1024.53 1024.88 1025.27 1025.74 1026.25 1026.70 1027.08 1027.30 1027.50
1014.72 1015.76 1016.57 1017.61 1017.18 1016.72 1016.52 1016.09 1015.91 1015.92 1016.03 1015.93 1015.47 1014.58 1013.98 1013.65 1013.91 1014.44 1014.72 1015.21 1015.72 1016.16 1016.54 1017.13 1017.77 1018.27 1018.80 1019.42 1020.05 1020.72 1021.31 1021.83 1022.42 1023.10 1023.59 1024.09 1024.64 1025.14 1025.60 1026.08 1026.45 1026.90 1027.12 1027.33
1015.31 1016.25 1017.45 1018.62 1018.19 1017.59 1016.80 1015.23 1015.10 1015.01 1014.71 1014.57 1014.14 1013.19 1013.10 1013.25 1013.13 1013.67 1014.25 1014.30 1014.56 1014.98 1015.46 1016.17 1016.75 1017.28 1017.88 1018.44 1019.10 1019.88 1020.34 1021.15 1021.97 1022.64 1023.36 1023.83 1024.37 1024.93 1025.27 1025.74 1026.21 1026.60 1026.94 1027.30
1015.53 1016.54 1017.71 1019.16 1018.98 1017.99 1015.19 1014.01 1013.60 1013.69 1013.55 1013.38 1012.74 1012.34 1012.03 1011.96 1012.09 1012.49 1012.94 1013.34 1013.85 1014.20 1014.73 1015.37 1016.01 1016.72 1017.37 1017.89 1018.62 1019.30 1020.05 1020.80 1021.61 1022.25 1022.90 1023.51 1024.08 1024.64 1025.22 1025.65 1025.98 1026.51 1026.88 1027.32
1015.52 1016.45 1018.21 1019.18 1019.17 1017.00 1015.04 1014.11 1013.66 1013.25 1012.48 1012.13 1012.01 1011.50 1011.38 1011.78 1012.02 1012.04 1012.11 1012.61 1012.84 1013.21 1013.83 1014.46 1015.03 1015.89 1016.82 1017.55 1018.27 1019.12 1019.91 1020.53 1021.24 1021.69 1022.17 1022.73 1023.26 1023.94 1024.61 1025.09 1025.62 1026.08 1026.65 1027.20
1015.53 1015.85 1017.06 1018.60 1018.76 1017.21 1014.75 1013.15 1012.86 1012.92 1012.34 1010.64 1010.56 1010.45 1011.23 1011.98 1012.37 1011.42 1011.89 1012.20 1012.72 1013.09 1013.61 1014.31 1015.08 1015.77 1016.66 1017.20 1017.83 1018.79 1019.66 1020.33 1020.60 1020.74 1021.19 1021.88 1022.75 1023.48 1024.11 1024.61 1025.31 1025.76 1026.12 1026.48
1015.26 1015.99 1016.70 1017.68 1017.75 1016.12 1014.05 1013.53 1013.48 1013.40 1011.82 1010.63 1010.42 1010.61 1011.41 1011.80 1011.49 1011.75 1012.00 1012.44 1012.81 1013.36 1013.91 1014.45 1015.25 1015.84 1016.18 1016.78 1017.86 1018.98 1019.56 1019.86 1019.36 1020.16 1021.00 1021.67 1022.26 1022.90 1023.50 1024.24 1024.79 1025.16 1025.74 1026.26
1014.63 1015.17 1015.92 1016.86 1016.95 1015.57 1013.60 1014.01 1013.66 1012.18 1011.55 1011.28 1011.00 1011.07 1011.52 1011.85 1012.25 1012.46 1012.75 1013.16 1013.71 1014.12 1014.73 1015.23 1016.22 1016.97 1016.89 1017.42 1018.07 1018.95 1019.56 1018.88 1019.40 1020.16 1020.93 1021.58 1022.16 1022.75 1023.38 1024.00 1024.64 1025.11 1025.66 1026.22
1014.64 1013.80 1014.24 1014.58 1014.00 1013.06 1012.90 1012.62 1012.31 1012.33 1012.29 1011.98 1011.69 1011.86 1012.22 1012.66 1013.07 1013.03 1013.28 1013.82 1014.18 1014.83 1015.62 1016.43 1017.17 1017.80 1017.69 1018.31 1018.57 1019.19 1018.66 1019.19 1019.89 1020.57 1021.09 1021.56 1022.12 1022.60 1022.97 1023.75 1024.44 1024.97 1025.26 1025.52
1014.03 1013.63 1013.96 1014.24 1013.53 1012.87 1012.59 1012.42 1012.39 1012.59 1012.81 1012.68 1012.54 1012.84 1012.91 1013.28 1013.70 1013.94 1014.07 1014.65 1015.16 1015.74 1016.46 1017.13 1017.81 1018.29 1018.79 1018.81 1019.22 1019.63 1019.66 1019.67 1020.31 1020.91 1021.48 1021.81 1022.01 1022.39 1022.73 1023.18 1023.58 1023.95 1024.34 1024.65
1014.90 1014.51 1014.29 1014.25 1014.05 1013.53 1012.81 1012.18 1012.61 1013.09 1012.99 1013.35 1013.70 1013.61 1013.75 1014.09 1014.70 1015.06 1015.36 1015.86 1016.29 1016.90 1017.58 1018.04 1018.68 1019.15 1019.41 1018.96 1019.09 1019.13 1019.36 1019.75 1020.47 1020.97 1021.24 1021.50 1021.81 1022.04 1022.29 1022.35 1022.53 1022.77 1022.86 1023.04
1014.62 1015.13 1014.48 1013.67 1013.21 1012.75 1012.77 1012.53 1012.84 1013.65 1013.94 1014.15 1014.38 1014.81 1015.32 1015.46 1015.91 1016.24 1016.85 1016.93 1017.33 1017.76 1018.30 1018.84 1019.30 1019.48 1019.11 1019.00 1019.10 1019.20 1019.42 1019.85 1020.40 1020.86 1021.13 1021.25 1021.54 1021.85 1022.07 1022.21 1022.48 1022.38 1022.33 1022.64
Thickness
5616 5610 5610 5625 5636 5645 5646 5651 5644 5639 5653 5656 5654 5656 5667 5673 5675 5675 5677 5681 5685 5689 5685 5687 5686 5682 5679 5676 5673 5668 5662 5657 5654 5651 5647 5642 5634 5627 5623 5621 5618 5615 5614 5612
5601 5601 5619 5631 5634 5636 5639 5642 5627 5632 5644 5649 5649 5650 5658 5668 5675 5676 5674 5675 5679 5675 5673 5675 5675 5673 5671 5667 5663 5659 5653 5647 5645 5644 5640 5635 5626 5618 5613 5609 5606 5603 5602 5600
5595 5613 5620 5621 5623 5621 5626 5628 5628 5626 5633 5639 5639 5635 5653 5671 5675 5678 5678 5679 5676 5668 5665 5666 5666 5664 5659 5655 5651 5647 5643 5638 5635 5634 5630 5623 5616 5608 5603 5599 5594 5590 5589 5586
5590 5604 5609 5608 5613 5620 5614 5630 5621 5619 5620 5615 5631 5614 5645 5670 5669 5670 5672 5671 5672 5669 5663 5662 5659 5655 5652 5644 5639 5636 5632 5628 5627 5625 5621 5617 5610 5601 5595 5589 5584 5581 5579 5576
5574 5588 5593 5597 5607 5616 5612 5615 5612 5613 5605 5605 5611 5606 5630 5657 5659 5662 5662 5662 5659 5655 5658 5654 5649 5644 5637 5633 5630 5626 5622 5618 5617 5616 5613 5607 5600 5592 5585 5580 5575 5571 5568 5566
5562 5576 5582 5589 5594 5602 5600 5598 5592 5588 5581 5556 5598 5606 5614 5640 5657 5656 5653 5650 5650 5644 5640 5639 5635 5631 5625 5622 5619 5616 5612 5609 5607 5605 5603 5598 5592 5584 5578 5572 5565 5560 5558 5555
5548 5553 5568 5579 5577 5584 5587 5580 5529 5534 5523 5568 5590 5595 5621 5642 5653 5649 5643 5640 5639 5636 5626 5621 5620 5616 5614 5612 5608 5606 5603 5598 5596 5595 5592 5588 5583 5577 5571 5564 5558 5552 5547 5542
5520 5514 5556 5569 5570 5573 5577 5583 5564 5568 5558 5576 5579 5588 5620 5634 5630 5634 5635 5633 5628 5625 5617 5611 5608 5605 5603 5602 5599 5597 5592 5588 5585 5583 5580 5577 5573 5566 5560 5556 5550 5543 5537 5533
5524 5527 5549 5557 5565 5572 5566 5564 5576 5557 5509 5546 5567 5594 5618 5616 5620 5622 5622 5620 5617 5613 5605 5603 5598 5595 5593 5591 5589 5585 5581 5576 5574 5571 5568 5564 5560 5555 5549 5544 5539 5532 5527 5522
5539 5518 5537 5546 5557 5560 5564 5569 5547 5523 5512 5536 5566 5587 5597 5603 5608 5612 5609 5606 5605 5603 5599 5594 5591 5587 5584 5582 5579 5574 5570 5566 5562 5559 5556 5552 5548 5544 5538 5532 5526 5521 5516 5511
5540 5531 5521 5535 5543 5548 5554 5555 5561 5553 5539 5553 5554 5574 5601 5606 5603 5603 5604 5603 5597 5592 5588 5585 5583 5579 5576 5572 5568 5564 5560 5556 5551 5548 5544 5541 5537 5532 5526 5521 5515 5509 5504 5500
5539 5527 5516 5530 5538 5545 5550 5552 5555 5528 5549 5524 5543 5563 5598 5597 5596 5598 5598 5597 5588 5585 5580 5579 5576 5572 5566 5563 5558 5555 5551 5547 5542 5539 5536 5532 5527 5522 5516 5510 5506 5502 5497 5493
5533 5508 5506 5513 5507 5529 5535 5544 5550 5547 5537 5549 5540 5559 5583 5587 5587 5589 5587 5585 5582 5577 5574 5572 5566 5562 5559 5555 5551 5547 5543 5539 5536 5532 5528 5522 5516 5512 5507 5502 5498 5492 5488 5483
5529 5518 5513 5520 5527 5529 5526 5541 5544 5544 5496 5540 5543 5563 5571 5575 5575 5575 5577 5575 5572 5571 5569 5561 5557 5555 5553 5549 5545 5541 5537 5534 5530 5525 5519 5514 5509 5504 5499 5494 5488 5484 5479 5473
5520 5495 5526 5527 5530 5532 5534 5541 5542 5541 5546 5541 5552 5557 5569 5568 5572 5574 5574 5570 5567 5567 5565 5562 5557 5551 5549 5545 5540 5536 5532 5528 5522 5516 5510 5506 5501 5497 5492 5486 5480 5473 5467 5460
5516 5493 5509 5477 5516 5526 5531 5534 5541 5544 5543 5542 5547 5555 5567 5581 5577 5571 5572 5569 5568 5568 5566 5560 5555 5553 5549 5545 5540 5534 5528 5522 5517 5511 5507 5502 5496 5490 5485 5478 5472 5464 5458 5452
5505 5485 5467 5461 5491 5507 5505 5513 5531 5542 5548 5549 5545 5567 5567 5562 5569 5568 5565 5569 5570 5569 5565 5558 5557 5554 5549 5545 5539 5532 5528 5519 5512 5506 5501 5496 5490 5484 5479 5472 5464 5457 5449 5441
5492 5482 5466 5468 5451 5475 5537 5540 5550 5547 5549 5549 5556 5561 5565 5572 5572 5569 5570 5571 5566 5566 5563 5559 5556 5549 5544 5539 5533 5528 5520 5513 5506 5502 5497 5491 5484 5477 5469 5462 5455 5446 5437 5427
5485 5476 5466 5468 5450 5498 5527 5532 5532 5533 5552 5556 5558 5565 5569 5565 5568 5568 5571 5568 5571 5567 5564 5562 5558 5549 5539 5533 5528 5520 5512 5507 5502 5499 5494 5488 5482 5473 5464 5456 5446 5437 5425 5414
5481 5486 5476 5465 5447 5469 5520 5537 5536 5541 5538 5561 5565 5569 5564 5555 5554 5569 5568 5566 5563 5561 5557 5552 5545 5539 5532 5528 5523 5515 5508 5503 5502 5497 5492 5484 5473 5464 5456 5447 5436 5425 5415 5405
5475 5473 5479 5472 5429 5475 5513 5522 5524 5504 5543 5559 5558 5560 5551 5555 5564 5559 5559 5558 5555 5550 5547 5542 5534 5533 5530 5520 5514 5508 5501 5500 5502 5490 5481 5474 5466 5457 5447 5436 5426 5416 5405 5393
5474 5482 5481 5439 5436 5484 5509 5505 5512 5528 5536 5544 5546 5550 5550 5547 5540 5542 5540 5539 5539 5538 5536 5529 5524 5515 5510 5509 5506 5499 5492 5496 5487 5479 5470 5462 5453 5445 5435 5424 5412 5403 5392 5380
5464 5472 5472 5486 5496 5508 5499 5510 5509 5512 5519 5531 5535 5534 5529 5527 5534 5533 5534 5533 5531 5528 5518 5507 5506 5501 5496 5490 5490 5488 5488 5480 5471 5464 5457 5448 5439 5432 5423 5411 5400 5389 5380 5372
5460 5450 5459 5478 5484 5502 5502 5498 5505 5508 5510 5514 5517 5519 5520 5525 5519 5524 5521 5517 5516 5504 5502 5496 5492 5487 5480 5476 5473 5468 5466 5463 5456 5447 5438 5432 5427 5418 5410 5402 5393 5383 5374 5366
5428 5441 5441 5449 5459 5466 5489 5494 5496 5495 5497 5500 5502 5508 5510 5507 5510 5509 5506 5504 5497 5487 5482 5478 5474 5468 5464 5464 5463 5459 5453 5448 5441 5433 5427 5420 5413 5407 5399 5393 5384 5377 5372 5367
5423 5422 5445 5466 5470 5487 5497 5485 5485 5485 5485 5485 5491 5495 5481 5483 5482 5480 5478 5474 5473 5471 5466 5464 5460 5456 5454 5450 5449 5446 5440 5434 5426 5419 5412 5407 5400 5392 5385 5377 5369 5368 5365 5359